sat.trackr.live / text

‹ back to catalog

UNKNOWN

NORAD 82524

UNKNOWN UNKNOWN UNKNOWN

§ Identity

Operator
Country
Launch date
Launch site
Launch vehicle
Mass (kg)
RCS (m²)

External: N2YO · Heavens-Above

§ Orbital elements

Epoch: 2026-05-23T23:51:17.902080Z

Period
100.23 min
Inclination
73.2806°
Eccentricity
0.0131940
Mean motion
14.36653465 rev/d
Perigee alt
675.3 km
Apogee alt
863.9 km
Semi-major
7,147.7 km
B*
7.9210e-4
RAAN
230.1020°
Arg perigee
351.2744°
Mean anomaly
187.2299°
Rev number
60,032

§ Raw data

UNKNOWN1 82524U          26143.99395720  .00002543  00000+0  79210-3 0  99962 82524  73.2806 230.1020 0131940 351.2744 187.2299 14.36653465600323

JSON: /api/v1/satellites/82524 · /tle

For live sub-satellite position, see the globe view (requires WebGL).

§ Visibility from observer

Set your observer location to see the next 7 days of passes ≥ 10°. The values pass through the URL so the page stays shareable.

No JS? Fill the form by hand. The geolocation button needs JavaScript.